Powrót do katalogu

STARLINK-34414

AktywnyŁącznośćVLEO
NORAD 64620·PAYLOAD·🇺🇸 United States

Wystrzelony Jun 25, 2025 z Cape Canaveral Space Force Station

Loading…

Następne Przeloty (najbliższe 24 godziny)

TLE

ŚwieżeSource: CelesTrak SupGP

Epoka: Sep 15, 2026, 03:16 UTC

1 64620C 25137AC  26258.13659722  .00053175  00000+0  15709-2 0  2586
2 64620  53.1566 172.7480 0001291 100.3523 331.9130 15.34368341    11

Śledź STARLINK-34414 w czasie rzeczywistym z AllMySat

Download on the App Store